| time (UTC) | temp F | wind direction | speed MPH | gust MPH | rain 1hr in | rain 24hr in | rain mn in | humidity % | barometer mb |
| 20260503010904 | 74 | 268 | 0.0 | 2.0 | 0.00 | 0.00 | 0.00 | 44 | 1017.1 |
| 20260503010003 | 75 | 268 | 0.0 | 1.0 | 0.00 | 0.00 | 0.00 | 41 | 1017.0 |
| 20260503005403 | 75 | 268 | 0.0 | 1.0 | 0.00 | 0.00 | 0.00 | 42 | 1017.0 |
| 20260503004524 | 76 | 268 | 0.0 | 1.0 | 0.00 | 0.00 | 0.00 | 39 | 1017.1 |
| 20260503003604 | 76 | 268 | 1.0 | 2.0 | 0.00 | 0.00 | 0.00 | 38 | 1017.0 |
| 20260503002703 | 76 | 268 | 1.0 | 2.0 | 0.00 | 0.00 | 0.00 | 38 | 1017.0 |
| 20260503001803 | 77 | 278 | 2.0 | 3.0 | 0.00 | 0.00 | 0.00 | 38 | 1017.0 |
| 20260503000904 | 77 | 306 | 2.0 | 3.0 | 0.00 | 0.00 | 0.00 | 38 | 1016.9 |
| 20260503000004 | 77 | 314 | 2.0 | 4.0 | 0.00 | 0.00 | 0.00 | 37 | 1017.0 |
| 20260502235425 | 78 | 313 | 1.0 | 3.0 | 0.00 | 0.00 | 0.00 | 36 | 1017.0 |
| 20260502234504 | 78 | 323 | 2.0 | 4.0 | 0.00 | 0.00 | 0.00 | 36 | 1017.0 |
| 20260502233603 | 78 | 348 | 2.0 | 4.0 | 0.00 | 0.00 | 0.00 | 36 | 1017.0 |
| 20260502232704 | 78 | 4 | 2.0 | 5.0 | 0.00 | 0.00 | 0.00 | 37 | 1017.0 |
| 20260502231803 | 78 | 13 | 3.0 | 5.0 | 0.00 | 0.00 | 0.00 | 36 | 1017.1 |
| 20260502230903 | 78 | 353 | 2.0 | 5.0 | 0.00 | 0.00 | 0.00 | 37 | 1017.1 |
| 20260502230004 | 78 | 357 | 3.0 | 5.0 | 0.00 | 0.00 | 0.00 | 37 | 1017.2 |
| 20260502225404 | 78 | 24 | 2.0 | 5.0 | 0.00 | 0.00 | 0.00 | 37 | 1017.1 |
| 20260502224504 | 77 | 294 | 1.0 | 2.0 | 0.00 | 0.00 | 0.00 | 36 | 1017.2 |
| 20260502223604 | 77 | 293 | 2.0 | 4.0 | 0.00 | 0.00 | 0.00 | 35 | 1017.2 |
| 20260502222725 | 78 | 323 | 2.0 | 4.0 | 0.00 | 0.00 | 0.00 | 35 | 1017.3 |
| 20260502221803 | 78 | 357 | 3.0 | 6.0 | 0.00 | 0.00 | 0.00 | 37 | 1017.3 |
| 20260502220903 | 79 | 324 | 3.0 | 7.0 | 0.00 | 0.00 | 0.00 | 37 | 1017.4 |
| 20260502220003 | 80 | 317 | 2.0 | 4.0 | 0.00 | 0.00 | 0.00 | 36 | 1017.4 |
| 20260502215404 | 80 | 22 | 2.0 | 5.0 | 0.00 | 0.00 | 0.00 | 40 | 1017.4 |
| 20260502214524 | 80 | 57 | 2.0 | 7.0 | 0.00 | 0.00 | 0.00 | 39 | 1017.5 |
| 20260502213603 | 80 | 54 | 2.0 | 7.0 | 0.00 | 0.00 | 0.00 | 39 | 1017.6 |
| 20260502212703 | 79 | 23 | 2.0 | 8.0 | 0.00 | 0.00 | 0.00 | 41 | 1017.7 |
| 20260502211804 | 79 | 13 | 4.0 | 8.0 | 0.00 | 0.00 | 0.00 | 40 | 1017.9 |
| 20260502210924 | 79 | 347 | 4.0 | 10.0 | 0.00 | 0.00 | 0.00 | 39 | 1017.9 |
| 20260502210003 | 80 | 358 | 3.0 | 8.0 | 0.00 | 0.00 | 0.00 | 40 | 1018.1 |
| 20260502205425 | 79 | 8 | 3.0 | 12.0 | 0.00 | 0.00 | 0.00 | 41 | 1018.2 |
| 20260502204504 | 79 | 4 | 4.0 | 9.0 | 0.00 | 0.00 | 0.00 | 41 | 1018.3 |
| 20260502203603 | 79 | 28 | 3.0 | 8.0 | 0.00 | 0.00 | 0.00 | 40 | 1018.4 |
| 20260502202725 | 79 | 47 | 3.0 | 8.0 | 0.00 | 0.00 | 0.00 | 39 | 1018.5 |
| 20260502201804 | 79 | 10 | 3.0 | 7.0 | 0.00 | 0.00 | 0.00 | 44 | 1018.5 |
| 20260502200903 | 78 | 6 | 4.0 | 8.0 | 0.00 | 0.00 | 0.00 | 41 | 1018.5 |
| 20260502200003 | 78 | 59 | 4.0 | 10.0 | 0.00 | 0.00 | 0.00 | 41 | 1018.7 |
| 20260502195403 | 78 | 37 | 4.0 | 10.0 | 0.00 | 0.00 | 0.00 | 40 | 1018.7 |
| 20260502194503 | 78 | 25 | 4.0 | 11.0 | 0.00 | 0.00 | 0.00 | 40 | 1018.8 |
| 20260502193603 | 78 | 56 | 3.0 | 9.0 | 0.00 | 0.00 | 0.00 | 41 | 1018.9 |
| 20260502192704 | 77 | 15 | 4.0 | 11.0 | 0.00 | 0.00 | 0.00 | 42 | 1019.0 |
| 20260502191803 | 77 | 334 | 5.0 | 11.0 | 0.00 | 0.00 | 0.00 | 42 | 1019.0 |
| 20260502190924 | 77 | 17 | 5.0 | 12.0 | 0.00 | 0.00 | 0.00 | 43 | 1019.1 |
| 20260502190024 | 78 | 40 | 3.0 | 11.0 | 0.00 | 0.00 | 0.00 | 45 | 1019.2 |
| 20260502185403 | 77 | 45 | 3.0 | 11.0 | 0.00 | 0.00 | 0.00 | 44 | 1019.3 |
| 20260502184524 | 76 | 349 | 5.0 | 11.0 | 0.00 | 0.00 | 0.00 | 44 | 1019.4 |
| 20260502183604 | 76 | 332 | 5.0 | 10.0 | 0.00 | 0.00 | 0.00 | 44 | 1019.6 |
| 20260502182703 | 76 | 14 | 3.0 | 11.0 | 0.00 | 0.00 | 0.00 | 44 | 1019.7 |
| 20260502181804 | 75 | 330 | 3.0 | 8.0 | 0.00 | 0.00 | 0.00 | 45 | 1019.8 |
| 20260502180903 | 76 | 1 | 2.0 | 7.0 | 0.00 | 0.00 | 0.00 | 44 | 1020.0 |
| 20260502163603 | 69 | 310 | 3.0 | 7.0 | 0.00 | 0.00 | 0.00 | 58 | 1020.9 |
| 20260502162703 | 69 | 319 | 4.0 | 8.0 | 0.00 | 0.00 | 0.00 | 59 | 1020.8 |
| 20260502161825 | 68 | 326 | 4.0 | 8.0 | 0.00 | 0.00 | 0.00 | 62 | 1020.9 |
| 20260502160903 | 68 | 340 | 3.0 | 8.0 | 0.00 | 0.00 | 0.00 | 64 | 1020.8 |
| 20260502151824 | 63 | 331 | 5.0 | 9.0 | 0.00 | 0.00 | 0.00 | 74 | 1020.7 |
| 20260502150925 | 63 | 325 | 5.0 | 10.0 | 0.00 | 0.00 | 0.00 | 76 | 1020.7 |
| 20260502123624 | 50 | 307 | 2.0 | 3.0 | 0.00 | 0.03 | 0.00 | 89 | 1019.6 |
| 20260502122704 | 50 | 306 | 1.0 | 3.0 | 0.00 | 0.03 | 0.00 | 89 | 1019.5 |
| 20260502121824 | 50 | 300 | 0.0 | 3.0 | 0.00 | 0.03 | 0.00 | 89 | 1019.3 |
| 20260502120924 | 49 | 306 | 1.0 | 3.0 | 0.00 | 0.03 | 0.00 | 89 | 1019.1 |
| 20260502115403 | 49 | 315 | 1.0 | 4.0 | 0.00 | 0.03 | 0.00 | 89 | 1018.9 |
| 20260502114503 | 49 | 319 | 0.0 | 2.0 | 0.00 | 0.03 | 0.00 | 89 | 1018.6 |
| 20260502113603 | 48 | 319 | 0.0 | 2.0 | 0.00 | 0.03 | 0.00 | 89 | 1018.5 |
| 20260502112725 | 48 | 0 | 0.0 | 0.0 | 0.00 | 0.03 | 0.00 | 89 | 1018.3 |
| 20260502111803 | 49 | 0 | 0.0 | 0.0 | 0.00 | 0.03 | 0.00 | 88 | 1018.2 |
| 20260502110903 | 49 | 0 | 0.0 | 0.0 | 0.00 | 0.03 | 0.00 | 88 | 1018.1 |
| 20260502110004 | 49 | 0 | 0.0 | 0.0 | 0.00 | 0.03 | 0.00 | 88 | 1017.9 |
| 20260502105403 | 49 | 0 | 0.0 | 0.0 | 0.00 | 0.03 | 0.00 | 88 | 1017.9 |
| 20260502104504 | 49 | 0 | 0.0 | 0.0 | 0.00 | 0.03 | 0.00 | 88 | 1017.8 |
| 20260502103624 | 49 | 0 | 0.0 | 0.0 | 0.00 | 0.03 | 0.00 | 88 | 1017.7 |
| 20260502102703 | 49 | 0 | 0.0 | 0.0 | 0.00 | 0.03 | 0.00 | 88 | 1017.6 |
| 20260502101804 | 49 | 0 | 0.0 | 0.0 | 0.00 | 0.03 | 0.00 | 88 | 1017.5 |
| 20260502100903 | 50 | 0 | 0.0 | 0.0 | 0.00 | 0.03 | 0.00 | 88 | 1017.5 |
| 20260502090924 | 50 | 0 | 0.0 | 0.0 | 0.00 | 0.03 | 0.00 | 88 | 1017.3 |
| 20260502070903 | 51 | 0 | 0.0 | 0.0 | 0.00 | 0.03 | 0.00 | 85 | 1017.5 |
| 20260502070004 | 51 | 0 | 0.0 | 0.0 | 0.00 | 0.03 | 0.00 | 85 | 1017.4 |
| 20260502065403 | 51 | 0 | 0.0 | 0.0 | 0.00 | 0.03 | 0.00 | 85 | 1017.3 |
| 20260502064524 | 52 | 0 | 0.0 | 0.0 | 0.00 | 0.03 | 0.00 | 84 | 1017.3 |
| 20260502063624 | 52 | 0 | 0.0 | 0.0 | 0.00 | 0.03 | 0.00 | 84 | 1017.5 |
| 20260502062703 | 52 | 0 | 0.0 | 0.0 | 0.00 | 0.03 | 0.00 | 84 | 1017.6 |
| 20260502061803 | 52 | 0 | 0.0 | 0.0 | 0.00 | 0.03 | 0.00 | 84 | 1017.5 |
| 20260502060903 | 52 | 0 | 0.0 | 0.0 | 0.00 | 0.03 | 0.00 | 84 | 1017.6 |
| 20260502060003 | 52 | 0 | 0.0 | 0.0 | 0.00 | 0.03 | 0.00 | 84 | 1017.7 |
| 20260502055403 | 53 | 0 | 0.0 | 0.0 | 0.00 | 0.03 | 0.00 | 83 | 1017.7 |
| 20260502054503 | 53 | 0 | 0.0 | 0.0 | 0.00 | 0.03 | 0.00 | 83 | 1017.8 |
| 20260502053603 | 53 | 0 | 0.0 | 0.0 | 0.00 | 0.03 | 0.00 | 83 | 1017.7 |
| 20260502052703 | 53 | 0 | 0.0 | 0.0 | 0.00 | 0.03 | 0.00 | 83 | 1017.6 |
| 20260502051803 | 54 | 0 | 0.0 | 0.0 | 0.00 | 0.03 | 0.00 | 82 | 1017.4 |
| 20260502050924 | 54 | 0 | 0.0 | 0.0 | 0.00 | 0.03 | 0.00 | 82 | 1017.3 |
| 20260502050004 | 54 | 0 | 0.0 | 0.0 | 0.00 | 0.03 | 0.00 | 82 | 1017.4 |
| 20260502044504 | 54 | 0 | 0.0 | 0.0 | 0.00 | 0.03 | 0.03 | 82 | 1017.3 |
| 20260502043603 | 55 | 0 | 0.0 | 0.0 | 0.00 | 0.03 | 0.03 | 82 | 1017.4 |
| 20260502042703 | 55 | 0 | 0.0 | 0.0 | 0.00 | 0.03 | 0.03 | 81 | 1017.3 |
| 20260502041803 | 55 | 0 | 0.0 | 0.0 | 0.00 | 0.03 | 0.03 | 81 | 1017.3 |
| 20260502040924 | 56 | 0 | 0.0 | 0.0 | 0.00 | 0.03 | 0.03 | 81 | 1017.3 |
| 20260502040003 | 56 | 0 | 0.0 | 0.0 | 0.00 | 0.03 | 0.03 | 80 | 1017.3 |
| 20260502035403 | 56 | 0 | 0.0 | 0.0 | 0.00 | 0.03 | 0.03 | 80 | 1017.3 |
| 20260502034503 | 56 | 0 | 0.0 | 0.0 | 0.00 | 0.03 | 0.03 | 79 | 1017.2 |
| 20260502033624 | 56 | 0 | 0.0 | 0.0 | 0.00 | 0.03 | 0.03 | 79 | 1017.0 |
| 20260502032703 | 57 | 0 | 0.0 | 0.0 | 0.00 | 0.03 | 0.03 | 79 | 1017.1 |
| 20260502031824 | 57 | 0 | 0.0 | 0.0 | 0.00 | 0.03 | 0.03 | 79 | 1017.1 |
| 20260502030904 | 57 | 0 | 0.0 | 0.0 | 0.00 | 0.03 | 0.03 | 78 | 1017.1 |
| 20260502030003 | 58 | 0 | 0.0 | 0.0 | 0.00 | 0.03 | 0.03 | 77 | 1016.9 |
| 20260502025403 | 58 | 0 | 0.0 | 0.0 | 0.00 | 0.03 | 0.03 | 76 | 1016.8 |
| 20260502024503 | 58 | 0 | 0.0 | 0.0 | 0.00 | 0.03 | 0.03 | 76 | 1016.6 |
| 20260502023603 | 58 | 0 | 0.0 | 0.0 | 0.00 | 0.03 | 0.03 | 76 | 1016.5 |
| 20260502022703 | 58 | 0 | 0.0 | 0.0 | 0.00 | 0.03 | 0.03 | 76 | 1016.4 |
| 20260502021803 | 58 | 0 | 0.0 | 0.0 | 0.00 | 0.03 | 0.03 | 75 | 1016.3 |
| 20260502020903 | 58 | 0 | 0.0 | 0.0 | 0.00 | 0.03 | 0.03 | 76 | 1016.2 |
| 20260502020004 | 58 | 0 | 0.0 | 0.0 | 0.00 | 0.03 | 0.03 | 76 | 1016.1 |
| 20260502015403 | 58 | 0 | 0.0 | 0.0 | 0.00 | 0.03 | 0.03 | 75 | 1015.8 |
| 20260502014503 | 58 | 68 | 0.0 | 1.0 | 0.00 | 0.03 | 0.03 | 75 | 1015.8 |
| 20260502013624 | 58 | 61 | 1.0 | 3.0 | 0.00 | 0.03 | 0.03 | 75 | 1015.4 |
| 20260502012703 | 59 | 63 | 2.0 | 5.0 | 0.00 | 0.03 | 0.03 | 73 | 1015.3 |
| 20260502011803 | 59 | 53 | 2.0 | 4.0 | 0.00 | 0.03 | 0.03 | 73 | 1015.3 |